KINEIS-5C

Last updated on Sun Oct 19 2025 00:02:42 GMT+0000 (Coordinated Universal Time)

1 62081U 24219A 25288.67135462 .00001404 00000+0 22949-3 0 9991 2 62081 97.9839 87.6661 0002694 83.2696 276.8818 14.72395463 47772
UTC large
Height (km)
Speed (km/s)
/
Latitude / Longitude
Inclination (degrees)
Orbital Period (minutes)
Azimuth
Elevation
Range (km)
Doppler Factor

Next 0 passes for location: London (51.5072 / 0.1276)

Sorry there are no passes over London.